Showing default

ECHOSTAR 25, 68126

Orbit data source: Space-Track

ECHOSTAR 25, 68126 is an American payload satellite in HEO that was launched on Tue, 10 Mar 2026 UTC launched from the Air Force Eastern Test Range (AFETR). Payload-class satellites include a variety of spacecraft equipped with specific instruments for various scientific and technological missions. These include communications satellites like Starlink; space stations such as the ISS; scientific satellites like the Hubble; Earth observation satellites from companies like Planet Labs, Umbra, and HawkEye 360; GPS; miniature CubeSats for education and research; and military/defense satellites.

Loading next visibility...
Identifier
68126, 2026-045A
Orbit
HEO
Country
Flag of USUS
Related business
None
Manufacturer
Unknown
Mission
Operational spacecraft
Bus & Motor
Unknown
Mass
Unknown
Launch date (UTC)
2026-03-10 (4 days ago)
Launch vehicle
Unknown
Launch site
Air Force Eastern Test Range (AFETR)
Object type
Payload
Rocket body
Debris
Shape & HBR
Unknown
Radar Cross Section
RCS unknown

Expand to show TLE details & history
Last TLE update: 2 days ago

TLE from 2 days ago
0 ECHOSTAR 25
1 68126U 26045A   26070.41163374  .00000389  00000-0  64833-4 0  9992
2 68126  26.8991  70.3993 6209398 175.3735 195.5868  3.74430284    51
Epoch: 2026-03-11T09:52Z
TLE epoch observation values (Epoch: 2026-03-11T09:52:45.155Z)
Latitude
-0.00005°
Longitude
113.14079°
Altitude
21,853.949 km
Speed
2.342 km/s
True Right ascension
04h 41m 37s
True Declination
0° 00' 00"
Sunlit
Object was in daylight at epoch
Visualization orbit readout
Latitude
Unknown
Longitude
Unknown
Altitude
Unknown
Speed
Unknown
Apparent Right ascension
Unknown
Apparent Declination
Unknown
Sunlit
N/A
Visualization observer readout
Local Sidereal Time
00:55:25
Azimuth
Unknown
Elevation
Unknown
Doppler factor
Unknown
Orbital elements
Apogee altitude
22,023.587 km
Perigee altitude
263.666 km
Semi-major axis
17,521.763 km
Eccentricity
0.62094
Inclination
26.8991°
RAAN
70.3993°
Arg. of periapsis
175.3735°
True anomaly
184.6669°
Mean anomaly
195.5868°
Eccentric anomaly
189.63326°
Mean motion
0.93579 °/min
Orbital period
384.7 mins
BSTAR
0.000064833
Loading maneuver chart data...
Computing Atmospheric mass density...
Loading historical data...
Loading historical data...
Loading historical data...
Loading historical data...
Loading historical data...
Loading historical data...
Loading historical data...
Other satellites on launch #45 in the year 2026 (2026-03-10 UTC)

Documentation

Showing up to 5 results
|